Date,TemperatureHighF,TemperatureAvgF,TemperatureLowF,DewpointHighF,DewpointAvgF,DewpointLowF,HumidityHigh,HumidityAvg,HumidityLow,PressureMaxIn,PressureMinIn,WindSpeedMaxMPH,WindSpeedAvgMPH,GustSpeedMaxMPH,PrecipitationSumIn
2013-1-1,16.4,11.6,7.8,3.6,-2.2,-4.7,82,54,39,30.39,30.26,23,2,28,0.00
2013-1-2,18.9,11.1,3.7,0.1,-2.5,-7.0,62,54,39,30.54,30.36,22,1,23,0.00
2013-1-3,28.9,15.1,2.9,2.4,-5.7,-13.9,62,41,17,30.59,30.47,8,0,9,0.00
2013-1-4,37.5,24.4,15.4,12.3,6.6,1.0,62,47,30,30.47,30.15,5,0,6,0.01
2013-1-5,30.5,25.0,19.3,4.2,-1.6,-12.6,48,31,18,30.39,30.14,24,2,25,0.00
2013-1-6,45.8,32.2,16.1,4.7,-7.5,-22.3,34,19,5,30.36,29.94,21,1,28,0.00
2013-1-7,42.5,33.1,25.4,6.9,-3.4,-14.2,36,21,10,29.94,29.76,25,1,25,0.00
2013-1-8,31.5,27.9,24.9,16.4,12.0,-5.3,62,52,21,30.29,29.73,30,3,33,0.00
2013-1-9,47.4,35.1,27.4,17.6,11.0,2.9,50,37,24,30.34,29.95,14,1,22,0.00
2013-1-10,45.1,33.5,25.2,13.3,5.9,-0.1,50,32,16,29.95,29.36,12,0,14,0.00
2013-1-11,27.9,16.3,5.2,18.0,0.2,-10.6,77,49,31,29.82,29.18,36,3,37,0.00
2013-1-12,11.4,1.4,-9.7,-1.3,-9.3,-15.2,81,62,36,30.28,29.82,31,1,32,0.00
2013-1-13,2.9,-2.9,-10.1,-1.6,-7.8,-15.6,89,79,73,30.49,30.27,4,0,4,0.00
2013-1-14,6.6,-2.2,-10.1,0.7,-8.9,-15.3,92,73,52,30.55,30.44,18,0,19,0.00
2013-1-15,26.9,16.0,0.5,13.3,1.1,-14.8,61,51,46,30.51,30.37,21,1,24,0.00
2013-1-16,39.4,27.2,19.3,18.9,13.7,8.0,80,57,38,30.42,30.28,19,1,21,0.00
2013-1-17,40.3,29.4,16.7,16.4,9.5,2.9,73,45,28,30.54,30.26,19,1,22,0.00
2013-1-18,40.1,32.8,28.0,6.6,3.4,0.1,38,29,19,30.27,30.08,26,4,32,0.00
2013-1-19,41.1,32.7,27.3,5.4,2.5,-1.6,36,27,18,30.28,30.05,30,3,30,0.00
2013-1-20,39.7,30.8,24.2,11.6,3.0,-1.2,49,30,20,30.23,30.10,29,2,31,0.00
2013-1-21,36.8,30.5,25.4,11.0,4.1,-3.0,38,32,21,30.18,30.09,33,5,37,0.00
2013-1-22,43.6,37.9,31.9,-1.0,-8.1,-22.1,22,14,6,30.15,29.96,39,6,40,0.00
2013-1-23,51.4,42.6,32.6,7.1,-6.3,-28.3,30,13,4,30.11,29.97,30,3,31,0.00
2013-1-24,45.2,38.2,32.7,25.6,11.3,-4.6,67,37,15,30.04,29.84,33,4,35,0.00
2013-1-25,42.2,36.6,32.8,26.6,24.2,20.5,69,61,51,30.06,29.94,23,2,26,0.00
2013-1-26,45.5,36.5,29.3,27.3,23.9,20.3,89,61,40,29.95,29.61,32,1,32,0.00
2013-1-27,42.1,33.9,25.3,28.2,22.7,13.6,90,64,43,29.73,29.58,25,2,28,0.03
2013-1-28,39.0,27.2,16.4,23.1,16.5,11.9,89,66,41,29.66,29.50,18,0,20,0.00
2013-1-29,18.4,10.6,1.8,13.2,-0.6,-7.6,87,62,38,30.13,29.63,23,1,25,0.00
2013-1-30,21.7,14.9,4.2,15.4,6.4,-6.0,83,69,49,30.14,30.03,44,4,44,0.00
2013-1-31,28.5,24.1,20.1,18.7,14.9,11.1,85,68,53,30.24,30.02,39,4,39,0.04
2013-2-1,30.3,26.3,23.8,19.0,14.7,10.9,72,61,54,30.24,30.06,39,4,39,0.00
2013-2-2,36.9,29.5,24.1,13.0,10.0,4.9,60,45,31,30.37,30.20,33,4,43,0.00
2013-2-3,40.1,32.7,27.1,7.9,0.7,-8.0,38,26,13,30.28,29.88,29,3,29,0.00
2013-2-4,37.0,29.7,25.2,14.0,7.3,2.9,52,39,27,29.99,29.82,35,4,39,0.00
2013-2-5,43.5,35.1,28.3,22.4,16.9,11.6,54,47,40,30.05,29.81,24,3,32,0.00
2013-2-6,39.8,34.0,21.5,24.1,18.7,11.0,85,55,41,29.98,29.71,20,2,23,0.00
2013-2-7,38.1,24.6,16.0,14.6,3.8,-10.5,72,43,14,30.18,29.97,16,0,18,0.02
2013-2-8,39.2,27.4,18.2,16.4,1.8,-6.5,67,35,19,30.13,29.74,8,0,9,0.00
2013-2-9,28.4,22.1,15.4,18.9,14.4,7.8,98,73,54,29.74,29.51,18,1,19,0.00
2013-2-10,20.6,15.3,8.2,13.9,7.8,3.8,86,72,55,30.15,29.59,22,0,22,0.00
2013-2-11,17.6,9.6,0.1,11.5,4.8,-4.8,86,81,75,30.29,30.14,3,0,4,0.00
2013-2-12,28.1,17.0,6.8,5.1,-0.1,-7.5,78,48,26,30.30,30.19,23,2,28,0.02
2013-2-13,27.9,22.3,16.4,14.9,9.2,5.0,64,57,49,30.22,30.04,36,5,37,0.00
2013-2-14,27.5,17.1,8.0,15.0,9.5,3.8,86,73,51,30.35,30.05,27,1,27,0.00
2013-2-15,25.1,17.2,4.4,13.2,6.8,-0.5,86,65,41,30.52,30.35,28,2,29,0.05
2013-2-16,35.9,28.3,20.7,15.5,10.6,6.4,66,48,35,30.40,29.99,51,7,51,0.00
2013-2-17,43.4,32.7,20.6,12.2,4.2,-3.0,56,31,15,30.01,29.53,28,2,28,0.01
2013-2-18,23.6,17.6,9.2,6.4,1.8,-3.8,66,50,35,30.19,29.63,25,1,26,0.00
2013-2-19,35.6,23.3,9.6,8.2,-2.2,-17.5,61,36,12,30.20,29.83,10,0,10,0.00
2013-2-20,30.8,20.9,14.0,14.9,9.3,4.5,86,62,39,29.83,29.64,6,0,6,0.00
2013-2-21,24.2,15.2,8.8,15.3,10.4,4.7,92,81,67,30.00,29.68,8,0,9,0.04
2013-2-22,25.7,17.4,12.3,15.5,6.5,-1.1,78,62,48,30.05,29.92,33,1,34,0.00
2013-2-23,36.4,22.3,13.8,16.7,9.3,0.8,77,58,41,29.93,29.73,37,4,37,0.01
2013-2-24,18.0,14.4,4.3,14.8,10.9,0.3,87,85,78,30.23,29.75,11,1,11,0.00
2013-2-25,32.7,19.3,4.7,26.5,12.4,0.7,85,75,56,30.27,29.93,18,1,18,0.17
2013-2-26,26.0,19.0,8.5,18.5,12.6,3.3,92,76,56,30.22,29.82,9,0,13,0.03
2013-2-27,25.8,14.6,4.4,10.1,2.2,-5.3,83,59,41,30.43,30.22,26,1,26,0.01
2013-2-28,30.2,19.9,12.2,11.4,5.1,-1.5,66,53,37,30.47,30.32,30,3,34,0.00
2013-3-1,39.7,28.7,19.7,19.1,13.8,4.3,64,54,37,30.40,30.32,25,3,31,0.01
2013-3-2,44.3,35.2,29.2,22.6,20.1,16.5,67,54,38,30.35,30.00,32,4,32,0.01
2013-3-3,45.6,36.9,31.3,26.5,19.5,15.0,77,50,36,30.01,29.50,50,4,50,0.00
2013-3-4,33.8,22.5,12.7,24.9,15.3,0.1,86,74,53,30.24,29.55,21,1,25,0.00
2013-3-5,41.3,27.2,12.7,4.1,-2.7,-9.5,67,31,13,30.42,30.19,35,4,38,0.02
2013-3-6,53.3,38.3,23.2,22.4,10.4,-5.1,57,33,16,30.19,29.75,15,1,23,0.01
2013-3-7,52.2,39.4,29.9,22.0,14.4,8.3,56,37,18,29.87,29.73,14,1,19,0.00
2013-3-8,43.9,32.3,24.2,25.9,18.3,9.8,90,58,34,29.85,29.60,7,0,8,0.00
2013-3-9,26.1,21.9,8.0,23.6,18.7,3.6,90,87,80,30.14,29.54,16,1,16,0.00
2013-3-10,35.9,22.2,6.6,19.5,11.3,2.1,85,64,39,30.30,30.14,24,2,30,0.22
2013-3-11,36.4,27.9,20.1,23.4,17.0,11.3,89,65,50,30.17,29.91,33,5,44,0.00
2013-3-12,39.3,27.8,16.8,27.0,19.4,13.5,89,72,49,30.29,30.10,24,2,30,0.20
2013-3-13,48.2,39.5,33.1,24.4,20.8,15.8,60,47,31,30.29,30.13,37,4,42,0.03
2013-3-14,53.9,44.8,38.2,21.3,18.5,13.7,47,36,22,30.21,30.01,25,3,29,0.00
2013-3-15,57.3,47.4,40.9,27.0,21.9,18.7,54,37,25,30.02,29.71,22,2,25,0.00
2013-3-16,43.7,35.4,28.7,32.4,25.9,20.1,86,69,51,29.77,29.66,15,1,16,0.02
2013-3-17,43.2,31.5,20.1,27.0,18.3,3.5,77,59,33,29.75,29.46,25,2,34,0.00
2013-3-18,31.7,24.1,16.0,14.8,8.1,0.3,69,50,35,30.05,29.73,30,4,36,0.00
2013-3-19,36.6,27.1,14.1,10.4,-1.1,-12.3,73,32,13,30.33,29.97,32,3,38,0.00
2013-3-20,44.9,31.7,12.8,22.3,10.3,-7.3,76,42,22,30.31,29.69,40,1,48,0.00
2013-3-21,42.4,31.7,21.4,28.5,17.7,5.3,83,57,38,29.73,29.44,29,3,35,0.02
2013-3-22,27.6,20.2,13.6,18.5,12.3,4.7,89,72,46,29.98,29.71,26,0,29,0.00
2013-3-23,15.3,9.6,0.6,12.8,4.5,-4.8,95,79,69,30.38,29.95,7,0,7,0.00
2013-3-24,18.9,8.1,-0.9,7.3,-0.2,-5.9,90,70,39,30.47,30.33,14,1,18,0.01
2013-3-25,21.3,11.2,0.4,12.4,3.1,-4.9,82,70,41,30.52,30.45,7,0,11,0.14
2013-3-26,42.9,29.3,12.2,22.0,14.4,2.5,79,54,33,30.46,30.03,24,2,31,0.09
2013-3-27,46.1,33.5,22.5,30.0,22.5,16.0,88,67,35,30.08,29.97,18,1,23,0.02
2013-3-28,48.3,37.1,27.9,29.4,23.2,17.4,78,58,36,30.09,30.02,9,0,9,0.00
2013-3-29,53.0,39.0,29.6,30.8,25.2,21.9,79,59,35,30.08,29.99,18,2,24,0.00
2013-3-30,51.2,39.4,29.7,29.6,25.2,21.8,90,59,33,30.07,29.90,26,2,26,0.00
2013-3-31,54.3,35.7,26.5,28.4,20.9,11.0,91,60,22,30.06,29.91,12,1,34,0.00
2013-4-1,40.7,30.5,23.0,28.6,22.4,18.3,88,73,55,30.01,29.92,7,0,7,0.00
2013-4-2,34.8,30.2,28.0,32.1,27.6,25.8,93,90,86,30.11,29.99,4,0,4,0.08
2013-4-3,52.2,36.8,21.8,33.2,26.3,18.8,92,68,36,30.15,30.05,18,1,21,0.32
2013-4-4,52.7,43.0,34.5,27.7,23.8,17.4,68,48,28,30.10,29.88,22,3,24,0.00
2013-4-5,56.0,46.0,34.9,31.9,22.9,17.8,81,42,27,29.88,29.49,23,2,31,0.02
2013-4-6,48.3,38.5,31.8,27.6,22.5,18.6,71,53,34,29.83,29.65,23,2,26,0.00
2013-4-7,45.9,38.2,30.8,29.9,24.2,19.1,83,58,39,29.80,29.59,23,3,32,0.01
2013-4-8,48.9,36.8,22.5,30.6,24.8,19.2,90,64,38,29.65,29.33,14,1,15,0.00
2013-4-9,22.3,11.6,2.6,19.3,6.7,-1.4,88,80,66,30.28,29.56,6,0,6,0.00
2013-4-10,29.8,20.4,3.1,18.4,13.1,-0.1,87,73,60,30.37,30.08,29,1,29,0.21
2013-4-11,44.6,31.7,20.1,28.6,21.6,12.2,88,67,44,30.09,29.84,30,3,30,0.17
2013-4-12,43.9,32.4,26.0,30.6,24.3,16.5,92,74,34,29.92,29.79,20,1,29,0.01
2013-4-13,49.9,38.6,25.7,30.3,19.7,13.0,88,49,27,29.87,29.35,45,3,45,0.00
2013-4-14,33.2,25.5,19.8,30.1,15.3,5.7,90,67,37,29.77,29.33,23,2,28,0.17
2013-4-15,26.6,21.4,13.6,22.5,16.4,9.4,87,81,58,30.05,29.73,8,0,11,0.00
2013-4-16,26.5,20.3,13.4,21.2,16.7,9.2,89,86,79,30.07,29.91,7,0,7,0.01
2013-4-17,26.1,16.2,3.7,21.4,12.3,-0.7,92,84,77,30.24,29.96,1,0,2,0.00
2013-4-18,23.9,14.5,1.1,12.9,4.9,-3.6,92,66,50,30.42,30.20,26,2,32,0.00
2013-4-19,37.9,27.6,17.1,21.5,15.7,7.6,71,61,46,30.36,30.01,39,4,39,0.02
2013-4-20,42.9,34.4,28.2,29.5,23.8,19.9,80,65,44,30.02,29.87,17,2,21,0.01
2013-4-21,45.9,36.0,28.5,25.8,20.0,15.9,80,54,33,30.04,29.92,23,3,23,0.00
2013-4-22,39.6,25.6,12.0,30.8,19.9,8.0,86,79,62,30.23,29.83,6,0,18,0.13
2013-4-23,31.5,17.4,9.1,20.4,11.0,5.3,85,76,56,30.37,30.18,8,0,16,0.12
2013-4-24,41.7,26.0,11.8,19.7,12.0,6.6,83,58,33,30.35,30.25,25,2,26,0.14
2013-4-25,57.3,37.0,19.9,24.5,15.2,6.6,63,44,18,30.26,29.92,16,1,19,0.20
2013-4-26,51.7,39.8,29.2,24.9,18.6,13.6,69,45,23,30.18,29.99,11,1,11,0.00
2013-4-27,58.7,45.8,32.2,21.6,17.1,13.0,61,33,19,30.17,29.91,20,2,22,0.00
2013-4-28,62.4,51.0,41.6,29.9,22.0,15.3,54,32,22,29.93,29.69,20,2,25,0.00
2013-4-29,63.4,50.9,36.6,31.9,26.1,19.2,75,41,22,29.74,29.42,37,2,37,0.00
2013-4-30,50.6,40.7,29.4,35.9,29.7,21.0,91,68,33,29.83,29.40,10,1,11,0.02
2013-5-1,29.3,21.6,9.2,27.0,17.6,2.5,91,84,72,30.68,29.79,6,0,6,0.01
2013-5-2,35.0,21.8,6.3,23.3,15.4,2.0,89,76,52,30.86,30.56,7,0,9,0.49
2013-5-3,54.3,36.8,24.4,31.0,22.3,13.9,78,57,26,30.59,30.05,12,1,15,0.31
2013-5-4,43.2,35.1,26.6,29.9,24.7,19.2,81,66,47,30.19,30.00,10,1,14,0.00
2013-5-5,43.7,34.7,25.1,31.5,26.2,19.8,91,72,48,30.19,30.05,7,0,8,0.00
2013-5-6,51.2,40.8,31.3,37.1,32.2,29.0,92,73,50,30.08,29.83,8,0,8,0.08
2013-5-7,57.8,43.5,35.7,37.6,31.9,25.0,92,66,29,29.86,29.75,20,2,23,0.02
2013-5-8,43.2,36.3,32.7,38.2,32.4,28.8,93,86,72,30.06,29.79,9,1,10,0.54
2013-5-9,44.3,37.4,31.3,37.6,34.0,28.8,95,88,72,30.17,30.04,8,1,10,0.61
2013-5-10,49.9,40.4,29.6,39.2,32.3,27.1,92,74,53,30.27,30.13,13,1,16,0.03
2013-5-11,55.7,43.0,31.5,43.6,34.4,28.2,92,72,43,30.31,30.13,13,1,19,0.07
2013-5-12,62.2,52.4,40.5,36.3,31.5,26.6,73,46,30,30.17,29.95,14,1,16,0.01
2013-5-13,72.0,58.7,50.9,41.9,33.7,30.2,51,40,22,29.95,29.75,24,2,24,0.00
2013-5-14,70.7,57.0,49.0,35.4,32.6,30.8,54,41,24,29.75,29.70,12,1,13,0.00
2013-5-15,64.8,55.2,43.6,40.5,36.9,30.4,80,52,32,29.70,29.63,13,1,14,0.00
2013-5-16,67.7,54.9,42.3,37.7,34.7,30.8,81,48,27,29.66,29.58,32,2,32,0.00
2013-5-17,73.2,57.8,41.2,39.2,28.1,12.8,72,37,10,29.66,29.52,14,1,15,0.00
2013-5-18,58.1,49.9,41.6,35.7,27.4,16.4,65,43,25,29.62,29.51,21,1,26,0.00
2013-5-19,54.2,44.1,38.2,33.2,29.0,26.3,68,56,36,29.70,29.58,26,4,30,0.00
2013-5-20,53.9,44.0,36.8,38.0,30.3,23.2,82,59,41,29.86,29.67,18,2,21,0.00
2013-5-21,58.7,45.0,33.7,31.4,26.2,20.3,68,49,28,29.88,29.76,19,2,21,0.00
2013-5-22,59.7,48.2,33.2,41.9,34.3,26.9,91,61,33,29.86,29.72,12,1,14,0.27
2013-5-23,52.6,45.0,40.2,47.0,42.2,38.3,96,90,79,29.86,29.78,6,0,9,0.01
2013-5-24,69.2,53.0,38.2,42.2,34.6,23.6,94,55,21,29.88,29.75,11,1,13,0.01
2013-5-25,70.0,56.8,40.5,41.8,31.1,16.1,89,42,13,29.78,29.64,10,1,12,0.00
2013-5-26,71.5,57.2,46.9,35.2,26.5,18.6,48,32,16,29.67,29.59,18,1,18,0.00
2013-5-27,70.6,57.5,44.9,30.0,22.2,11.1,48,27,13,29.61,29.47,19,2,21,0.00
2013-5-28,64.2,52.7,39.2,43.5,31.6,24.1,66,46,26,29.52,29.37,16,1,16,0.00
2013-5-29,53.0,43.0,35.7,38.9,32.9,26.7,92,69,40,29.58,29.34,29,2,30,0.15
2013-5-30,52.5,43.8,37.7,29.3,25.2,20.6,65,49,29,29.70,29.46,41,6,45,0.00
2013-5-31,54.4,45.4,36.0,23.4,18.5,12.9,55,35,21,29.91,29.65,36,4,38,0.00
2013-6-1,54.6,45.3,37.7,38.3,30.5,18.4,77,56,37,30.08,29.90,15,1,21,0.00
2013-6-2,70.8,53.0,32.0,40.5,30.9,23.1,82,47,18,30.07,29.65,18,1,19,0.00
2013-6-3,73.8,60.6,46.2,34.7,28.1,22.3,44,30,18,29.65,29.48,24,2,29,0.00
2013-6-4,57.2,48.5,39.0,47.3,38.5,21.8,95,70,36,29.96,29.60,10,1,13,0.10
2013-6-5,50.5,41.3,37.1,46.1,39.1,35.4,96,92,79,30.05,29.93,4,0,5,0.09
2013-6-6,62.4,51.6,36.1,48.2,36.8,29.5,94,59,36,30.05,29.89,9,1,11,0.01
2013-6-7,69.2,54.0,38.8,49.7,39.2,33.5,82,60,30,29.93,29.60,16,1,21,0.02
2013-6-8,63.8,55.4,43.1,49.2,40.8,34.1,81,59,43,29.77,29.50,16,1,19,0.00
2013-6-9,76.6,58.5,39.8,45.2,35.3,31.0,84,46,20,29.85,29.70,13,1,17,0.00
2013-6-10,84.5,69.8,54.2,39.5,33.0,26.2,44,27,14,29.70,29.49,22,2,25,0.00
2013-6-11,82.5,68.8,54.2,36.0,25.3,13.9,40,21,8,29.57,29.43,26,3,28,0.00
2013-6-12,75.5,63.8,48.5,42.9,31.9,18.6,55,31,21,29.78,29.56,13,1,21,0.00
2013-6-13,81.3,63.2,46.0,49.4,39.4,30.3,74,46,16,29.77,29.57,24,1,24,0.00
2013-6-14,77.8,62.0,50.8,42.3,35.3,22.3,67,40,15,29.65,29.57,18,1,21,0.00
2013-6-15,66.3,55.6,40.7,50.0,43.7,35.7,89,65,50,29.85,29.62,10,1,11,0.00
2013-6-16,67.6,56.4,46.4,45.8,36.3,30.1,79,49,27,29.93,29.80,21,1,23,0.00
2013-6-17,65.8,55.3,43.5,53.2,41.3,30.1,90,61,36,29.90,29.80,12,1,18,0.16
2013-6-18,69.0,56.3,43.0,52.9,44.5,37.6,86,66,39,29.87,29.65,8,1,8,0.03
2013-6-19,78.5,63.3,41.6,45.9,31.5,10.5,91,41,9,29.72,29.45,34,1,34,0.00
2013-6-20,72.5,61.8,49.2,42.2,27.2,13.8,43,27,20,29.61,29.48,12,1,15,0.00
2013-6-21,77.8,64.3,46.5,43.0,30.4,17.2,66,32,12,29.61,29.49,14,1,17,0.00
2013-6-22,70.5,58.8,43.8,48.4,36.4,22.2,75,47,18,29.64,29.47,18,1,18,0.00
2013-6-23,70.5,57.5,42.7,48.9,36.5,22.9,69,46,26,29.70,29.57,18,1,19,0.00
2013-6-24,78.0,61.9,42.5,44.3,29.4,18.8,79,35,13,29.65,29.50,21,1,26,0.00
2013-6-25,76.3,64.4,51.2,38.2,31.4,23.4,40,29,23,29.71,29.50,21,2,25,0.00
2013-6-26,83.7,68.8,50.0,39.9,34.4,30.2,49,30,16,29.78,29.69,18,2,19,0.00
2013-6-27,81.0,70.1,57.3,44.6,37.7,32.1,52,31,20,29.87,29.73,12,1,13,0.00
2013-6-28,80.9,66.4,50.6,59.0,46.0,32.7,91,52,21,29.87,29.74,11,1,11,0.40
2013-6-29,71.7,59.3,48.5,58.1,50.5,44.8,92,74,47,29.91,29.81,7,0,8,0.09
2013-6-30,66.3,57.1,49.9,56.4,50.2,45.2,91,78,54,29.94,29.83,6,0,7,0.17
2013-7-1,65.2,56.1,46.1,53.2,47.3,38.6,94,73,47,30.04,29.94,10,1,11,0.04
2013-7-2,68.1,56.4,45.0,54.8,46.2,39.9,89,70,47,30.00,29.88,12,1,14,0.05
2013-7-3,73.5,57.7,43.8,51.1,44.1,33.9,89,63,39,29.90,29.67,16,1,21,0.18
2013-7-4,72.9,61.8,52.1,53.8,45.4,39.9,72,56,35,29.74,29.63,9,1,13,0.03
2013-7-5,74.5,61.3,50.9,54.7,48.0,41.6,82,63,39,29.64,29.52,16,1,19,0.03
2013-7-6,76.3,62.8,50.9,51.7,47.2,43.8,83,59,36,29.69,29.58,20,2,32,0.03
2013-7-7,77.8,62.2,51.8,55.9,47.2,43.9,84,61,30,29.72,29.66,14,2,22,0.09
2013-7-8,79.3,67.9,58.1,47.8,43.1,37.2,61,42,24,29.76,29.68,11,2,25,0.00
2013-7-9,81.2,68.1,56.0,43.5,39.8,36.0,54,37,22,29.85,29.75,7,1,19,0.00
2013-7-10,78.3,65.4,49.9,56.0,45.7,38.8,67,50,34,29.85,29.70,7,1,14,0.00
2013-7-11,84.3,70.2,54.8,52.9,46.1,37.9,68,45,22,29.78,29.50,16,1,17,0.00
2013-7-12,76.4,62.6,56.0,55.1,49.1,43.1,89,64,38,29.73,29.50,15,1,15,0.24
2013-7-13,79.2,61.1,53.0,55.4,50.9,47.4,92,72,35,29.86,29.73,15,1,15,0.11
2013-7-14,67.1,58.4,51.5,55.6,51.7,47.2,93,79,58,29.94,29.79,8,0,9,1.94
2013-7-15,66.8,56.0,50.1,59.4,53.2,48.0,97,91,74,29.92,29.82,9,0,9,0.11
2013-7-16,68.9,58.3,46.5,52.6,47.3,41.9,94,69,41,29.94,29.85,8,1,9,0.00
2013-7-17,74.5,61.5,46.6,56.1,49.4,42.6,89,66,46,29.94,29.82,7,0,10,0.00
2013-7-18,77.3,63.6,55.5,54.6,50.2,46.0,90,64,39,29.83,29.70,12,1,14,0.36
2013-7-19,69.5,60.6,51.9,55.8,51.6,42.8,91,73,48,29.88,29.75,12,0,12,0.01
2013-7-20,75.9,61.3,48.7,55.4,47.5,40.9,88,63,33,29.78,29.65,14,1,17,0.00
2013-7-21,79.3,65.3,50.2,55.0,41.2,26.4,88,44,16,29.68,29.58,14,1,21,0.00
2013-7-22,81.8,69.6,55.8,53.6,35.0,17.4,61,31,9,29.65,29.56,15,1,21,0.00
2013-7-23,79.2,65.6,54.7,53.6,38.1,19.7,83,39,11,29.80,29.61,10,1,13,0.00
2013-7-24,69.3,59.5,51.4,57.2,50.8,45.1,90,74,56,29.87,29.74,14,1,16,0.03
2013-7-25,66.5,55.9,49.8,52.9,48.3,45.3,93,76,50,30.01,29.76,12,1,17,0.15
2013-7-26,71.8,57.8,44.9,54.0,46.9,42.1,92,69,42,30.04,29.90,7,0,8,0.01
2013-7-27,74.5,59.2,49.3,54.7,46.5,36.4,94,66,34,29.91,29.69,18,1,18,0.07
2013-7-28,60.8,53.6,48.8,56.3,51.3,47.4,97,92,80,29.74,29.61,6,0,9,0.05
2013-7-29,67.4,57.1,49.9,53.2,47.4,44.0,89,71,47,29.92,29.72,14,1,15,0.32
2013-7-30,72.8,61.2,51.1,51.3,45.5,38.0,79,58,35,30.00,29.90,19,1,22,0.00
2013-7-31,73.5,62.2,49.6,54.0,46.7,41.0,79,58,41,30.00,29.86,9,0,11,0.00
2013-8-1,77.9,63.4,49.8,49.6,45.0,40.3,84,54,28,29.91,29.65,15,1,15,0.00
2013-8-2,79.6,67.1,55.2,49.6,44.0,37.1,61,45,22,29.66,29.60,27,3,34,0.00
2013-8-3,75.6,59.2,49.8,58.1,48.8,40.9,92,72,35,29.90,29.68,11,0,15,0.42
2013-8-4,76.2,62.8,50.3,51.5,45.2,36.3,89,55,28,29.87,29.78,13,1,17,0.00
2013-8-5,74.2,60.7,51.5,54.8,46.1,40.3,90,61,34,29.78,29.70,13,1,15,0.35
2013-8-6,76.3,64.0,55.7,48.8,43.5,37.9,71,48,26,29.77,29.69,16,2,19,0.00
2013-8-7,62.4,56.4,47.4,50.2,45.3,35.9,86,67,44,29.78,29.72,7,0,9,0.00
2013-8-8,63.2,54.3,44.7,55.2,44.2,35.4,78,69,51,29.95,29.77,9,0,9,0.00
2013-8-9,62.7,52.1,44.7,49.3,43.6,37.3,86,73,53,30.02,29.90,11,0,11,0.03
2013-8-10,73.8,58.4,44.2,54.5,42.7,35.8,83,59,26,30.03,29.88,14,1,15,0.07
2013-8-11,65.8,56.9,49.0,50.6,44.8,38.5,81,65,42,29.94,29.87,7,0,7,0.09
2013-8-12,65.6,55.7,45.8,51.0,44.9,38.8,88,68,49,29.98,29.90,9,0,11,0.14
2013-8-13,62.7,54.5,45.5,51.1,46.5,39.6,91,75,59,30.04,29.90,14,0,14,0.30
2013-8-14,65.8,53.7,42.8,53.6,43.0,38.0,89,69,45,30.02,29.89,16,0,18,0.34
2013-8-15,71.6,58.7,43.6,51.8,39.5,31.5,81,51,24,29.97,29.89,19,1,25,0.03
2013-8-16,75.5,61.5,47.2,48.3,39.4,30.9,77,47,24,29.94,29.85,7,0,10,0.01
2013-8-17,80.0,65.6,49.6,43.3,36.3,27.0,66,37,16,29.90,29.75,11,1,13,0.00
2013-8-18,77.8,65.6,51.9,49.9,41.7,33.6,63,42,25,29.82,29.72,10,1,18,0.00
2013-8-19,78.4,66.1,54.2,46.1,41.0,35.4,57,41,22,29.79,29.75,16,1,16,0.00
2013-8-20,80.8,71.7,59.6,45.8,40.3,33.3,49,33,19,29.71,29.65,12,1,14,0.00
2013-8-21,74.0,64.1,56.1,58.1,46.6,39.6,76,54,34,29.80,29.67,8,0,11,0.05
2013-8-22,68.8,57.7,49.1,58.2,49.9,44.0,86,76,57,29.92,29.80,8,0,11,0.10
2013-8-23,72.1,62.0,53.5,53.8,48.6,44.4,86,62,47,29.92,29.69,13,1,17,0.01
2013-8-24,71.4,61.7,47.6,52.7,48.3,42.9,85,63,41,29.84,29.70,15,1,16,0.02
2013-8-25,72.8,59.9,49.1,55.9,48.2,42.9,85,67,41,29.87,29.81,12,0,15,0.05
2013-8-26,73.8,58.0,50.5,56.4,49.2,46.1,88,74,43,29.87,29.81,11,1,21,0.14
2013-8-27,75.0,64.0,51.8,56.8,50.7,46.9,85,64,47,29.86,29.76,11,1,12,0.00
2013-8-28,76.9,64.6,52.6,55.9,48.0,41.7,82,56,42,29.85,29.75,18,1,22,0.00
2013-8-29,77.6,64.6,56.0,53.6,46.0,41.2,71,52,32,29.87,29.80,11,0,12,0.02
2013-8-30,75.7,64.8,57.3,54.7,47.0,42.3,66,53,35,29.87,29.76,10,0,12,0.00
2013-8-31,76.3,64.7,53.9,51.8,45.3,42.4,83,50,33,29.81,29.70,16,1,16,0.03
2013-9-1,65.6,55.9,49.6,56.1,49.8,44.4,89,80,64,29.89,29.82,4,0,8,0.02
2013-9-2,76.2,63.5,50.1,54.5,47.9,43.7,87,59,38,29.89,29.75,5,0,11,0.00
2013-9-3,78.4,68.2,56.2,52.9,47.9,44.1,64,49,33,29.78,29.71,7,1,14,0.00
2013-9-4,78.9,65.5,55.9,51.9,47.8,43.3,69,54,35,29.89,29.75,15,1,24,0.00
2013-9-5,58.3,55.4,52.8,46.2,42.9,41.0,68,63,57,29.90,29.87,7,0,7,0.00
2013-9-6,79.8,66.7,54.7,49.5,45.7,40.5,67,48,31,29.85,29.73,18,1,19,0.00
2013-9-7,75.4,58.7,52.0,48.5,43.5,40.1,71,59,33,29.82,29.76,7,0,8,0.00
2013-9-8,73.8,61.5,51.4,53.2,46.7,38.6,78,59,37,29.73,29.59,13,1,18,0.02
2013-9-9,69.3,56.5,48.2,52.5,48.6,42.6,93,76,51,29.76,29.62,12,0,13,1.32
2013-9-10,53.7,51.2,50.1,52.3,49.7,48.4,96,95,93,29.99,29.71,6,0,7,0.57
2013-9-11,53.4,51.4,49.8,52.6,50.4,48.6,97,96,95,30.01,29.95,6,0,8,3.25
2013-9-12,50.9,49.6,48.5,50.1,48.7,47.4,97,97,96,30.03,30.00,9,0,10,1.50
2013-9-13,63.4,51.0,45.9,51.4,47.3,43.3,95,88,58,29.86,29.69,6,0,9,0.30
2013-9-14,49.9,47.0,44.4,48.8,45.6,43.1,100,95,93,30.08,29.86,9,0,12,0.82
2013-9-15,65.5,51.7,43.2,55.8,47.0,41.9,96,86,52,30.06,29.92,8,0,11,0.01
2013-9-16,70.8,58.1,48.1,46.3,41.8,37.0,72,56,32,29.83,29.55,8,1,16,0.00
2013-9-17,73.0,55.4,44.7,46.7,40.9,37.9,83,59,31,29.71,29.55,28,1,28,0.04
2013-9-18,45.7,43.8,42.5,40.2,39.3,38.0,86,84,81,29.75,29.67,4,0,4,0.00
2013-9-19,51.9,45.0,38.4,43.4,39.5,35.6,92,81,69,30.03,29.75,7,0,8,0.00
2013-9-20,59.2,44.8,32.7,45.4,38.5,30.9,97,80,54,30.07,29.94,7,0,7,0.01
2013-9-21,69.9,57.1,43.3,47.6,36.9,28.9,65,48,31,29.95,29.56,24,1,26,0.00
2013-9-22,62.1,50.3,42.0,47.0,39.8,33.0,90,68,47,29.56,29.37,26,1,26,0.14
2013-9-23,48.1,42.7,39.1,37.9,33.2,29.4,88,70,53,29.93,29.29,37,5,39,0.17
2013-9-24,67.0,53.0,43.5,40.7,28.0,12.7,64,40,16,30.03,29.64,15,1,22,0.00
2013-9-25,67.1,52.1,44.2,34.6,22.2,14.9,44,32,21,29.65,29.34,13,0,13,0.00
2013-9-26,50.1,40.4,36.3,40.6,37.8,28.6,99,91,46,29.52,29.30,3,0,6,0.19
2013-9-27,39.5,34.2,31.1,37.9,29.3,21.0,94,83,65,29.87,29.51,34,1,34,0.28
2013-9-28,50.1,39.6,30.1,28.7,23.3,17.3,72,53,41,30.15,29.87,35,3,35,0.00
2013-9-29,62.6,50.0,36.6,28.7,21.7,11.0,59,34,17,30.10,29.73,28,2,30,0.00
2013-9-30,67.6,56.1,47.8,35.1,27.5,21.7,48,34,25,29.76,29.59,35,3,41,0.00
2013-10-1,61.7,50.8,40.3,45.0,34.5,23.2,81,55,33,29.81,29.68,10,0,13,0.00
2013-10-2,63.4,51.3,39.1,40.4,32.5,24.2,85,51,24,29.81,29.67,11,0,12,0.00
2013-10-3,58.2,45.2,35.1,42.3,35.6,25.4,93,71,41,29.67,29.50,12,0,18,0.27
2013-10-4,38.6,29.8,21.3,36.8,26.6,14.9,93,88,73,30.12,29.53,28,0,30,0.24
2013-10-5,40.9,31.4,22.3,20.8,15.8,4.6,77,54,28,30.34,30.09,27,3,32,0.04
2013-10-6,58.8,45.7,34.8,35.7,25.8,8.9,53,46,34,30.32,30.09,26,1,27,0.05
2013-10-7,67.1,53.2,40.7,36.0,20.6,10.7,52,30,11,30.10,29.73,15,1,16,0.00
2013-10-8,64.2,53.0,43.1,32.6,23.9,12.1,61,33,20,29.73,29.51,15,1,22,0.00
2013-10-9,54.6,44.8,37.6,41.1,32.9,25.1,91,64,40,29.79,29.57,7,0,8,0.00
2013-10-10,48.3,39.4,33.4,43.0,33.5,25.3,92,80,60,29.76,29.35,32,1,37,0.02
2013-10-11,44.4,38.4,34.0,29.5,26.5,24.4,76,62,50,29.96,29.31,46,4,50,0.00
2013-10-12,45.5,36.1,29.9,36.2,31.1,25.8,92,83,62,30.09,29.96,7,0,7,0.00
2013-10-13,56.8,39.9,28.5,39.6,32.2,24.2,91,76,45,30.10,29.80,11,0,15,0.01
2013-10-14,40.2,35.6,29.5,32.2,28.5,24.2,88,76,62,30.06,29.63,21,1,25,0.06
2013-10-15,29.4,26.0,23.4,26.6,23.3,20.4,92,89,85,30.26,30.06,5,0,5,0.03
2013-10-16,41.2,31.2,20.2,22.8,19.3,15.7,91,63,44,30.22,30.06,22,2,26,0.03
2013-10-17,39.7,32.0,27.1,28.4,22.8,15.9,91,70,45,30.07,29.94,26,1,26,0.00
2013-10-18,36.8,27.8,19.7,24.7,18.5,13.7,98,70,47,30.19,29.98,24,1,30,0.21
2013-10-19,44.5,37.3,28.8,22.3,18.6,15.1,58,47,36,30.20,29.86,30,4,36,0.04
2013-10-20,39.5,33.7,22.2,30.9,22.7,18.8,91,66,45,30.08,29.81,28,1,29,0.00
2013-10-21,41.9,31.9,20.0,26.9,22.0,17.0,91,68,51,30.27,30.08,23,1,26,0.16
2013-10-22,53.2,43.0,34.0,31.8,25.4,21.3,61,50,37,30.23,30.02,26,2,26,0.00
2013-10-23,56.2,43.6,31.4,34.0,26.7,20.6,82,53,31,30.08,29.95,18,1,18,0.00
2013-10-24,54.4,39.9,28.8,32.4,26.0,22.7,85,60,37,30.16,30.06,7,0,8,0.00
2013-10-25,59.2,44.4,34.1,32.7,25.0,19.3,69,48,25,30.13,30.00,9,0,10,0.00
2013-10-26,50.7,38.6,28.4,33.8,26.8,18.9,82,63,37,30.21,30.10,13,0,15,0.00
2013-10-27,53.5,45.3,36.3,26.0,21.8,18.8,57,39,29,30.10,29.74,18,2,21,0.00
2013-10-28,37.7,28.9,23.5,26.8,23.4,20.3,92,81,53,29.97,29.73,4,0,4,0.00
2013-10-29,48.2,29.2,17.5,34.2,23.9,14.8,98,83,38,30.05,29.85,15,0,18,0.00
2013-10-30,38.2,30.8,25.5,28.7,21.0,15.4,92,68,47,29.86,29.75,29,2,33,0.08
2013-10-31,34.2,29.4,26.2,23.7,17.4,13.1,80,61,45,29.96,29.75,37,5,41,0.00
2013-11-1,37.9,32.1,28.5,24.3,19.3,15.9,83,59,46,30.23,29.95,23,2,26,0.00
2013-11-2,54.7,40.2,31.3,19.9,12.0,-3.5,62,37,9,30.21,29.93,28,3,34,0.00
2013-11-3,52.0,40.6,25.6,24.5,17.1,-3.3,74,42,15,29.68,29.39,29,2,32,0.00
2013-11-4,30.6,23.6,18.9,19.5,14.0,6.5,86,67,54,30.00,29.59,9,0,12,0.00
2013-11-5,27.9,21.1,16.2,15.7,8.2,-0.3,92,59,41,30.24,29.95,33,2,33,0.00
2013-11-6,32.7,26.7,17.9,18.0,12.5,2.5,61,54,47,30.46,30.20,36,5,42,0.00
2013-11-7,48.8,37.0,28.3,20.8,18.5,16.8,63,48,29,30.47,29.97,17,2,32,0.00
2013-11-8,48.4,42.0,35.4,19.4,16.5,9.5,48,36,26,29.97,29.60,41,5,61,0.00
2013-11-9,50.9,39.9,30.7,23.0,19.4,16.8,72,44,30,30.13,29.92,14,1,18,0.00
2013-11-10,51.4,41.4,33.5,21.0,18.2,14.4,57,40,27,30.16,30.07,19,1,26,0.00
2013-11-11,54.7,38.3,22.4,29.4,21.1,16.8,90,54,23,30.47,30.07,24,1,25,0.00
2013-11-12,48.7,35.0,23.1,28.1,21.1,4.0,92,61,21,30.57,30.39,9,0,9,0.00
2013-11-13,52.4,44.0,39.4,18.2,12.2,5.5,42,28,19,30.39,29.88,25,2,27,0.00
2013-11-14,39.3,35.2,31.0,25.0,17.4,9.7,69,49,34,29.91,29.66,14,1,14,0.00
2013-11-15,47.4,36.6,27.5,27.1,15.8,2.2,85,46,23,29.66,29.35,28,2,35,0.00
2013-11-16,37.5,30.5,25.8,25.1,19.2,10.4,88,64,43,29.47,29.15,46,4,51,0.00
2013-11-17,38.4,31.6,21.7,21.2,16.9,8.3,79,55,31,30.13,29.49,60,4,62,0.01
2013-11-18,45.5,35.5,29.6,19.8,12.4,3.0,60,40,21,30.19,30.02,32,3,33,0.00
2013-11-19,42.0,37.6,32.8,27.8,18.8,4.4,74,48,24,30.02,29.56,42,4,45,0.00
2013-11-20,44.7,35.5,27.0,27.5,22.2,19.4,81,59,37,29.86,29.68,28,2,33,0.00
2013-11-21,26.9,10.9,3.0,22.0,6.4,-1.5,88,82,74,30.77,29.85,2,0,3,0.00
2013-11-22,33.6,20.2,11.7,22.1,12.1,7.2,86,72,38,30.84,30.69,4,0,4,0.06
2013-11-23,31.4,21.6,14.6,21.6,16.9,11.2,91,82,61,30.69,30.38,5,0,6,0.09
2013-11-24,44.2,32.4,21.5,32.7,25.1,9.7,92,76,42,30.38,29.95,7,0,7,0.15
2013-11-25,33.2,27.8,21.2,24.2,18.6,9.7,80,69,41,30.34,30.00,4,0,4,0.00
2013-11-26,34.7,25.1,18.2,19.3,14.9,12.3,83,66,45,30.49,30.33,15,0,16,0.00
2013-11-27,43.5,35.6,28.6,18.2,15.3,12.5,58,44,32,30.36,30.10,20,2,23,0.00
2013-11-28,41.5,31.5,23.5,24.8,17.4,12.1,70,56,40,30.19,30.09,7,0,7,0.00
2013-11-29,40.4,36.9,32.6,19.3,16.7,12.9,53,44,35,30.16,30.05,27,4,32,0.00
2013-11-30,40.5,33.9,30.1,16.9,14.3,11.1,54,44,31,30.17,30.08,28,3,28,0.00
2013-12-1,35.9,32.3,28.4,23.6,19.0,12.7,71,58,48,30.14,29.74,38,6,41,0.00
2013-12-2,38.3,34.2,31.6,24.4,21.8,19.5,68,60,51,29.82,29.46,54,11,54,0.00
2013-12-3,36.0,25.0,3.9,28.5,16.5,-1.1,83,71,53,29.58,29.35,23,2,25,0.00
2013-12-4,3.9,0.3,-6.5,-1.2,-5.1,-12.2,83,77,72,30.31,29.58,13,0,13,0.00
2013-12-5,9.2,-1.6,-8.2,1.4,-7.7,-13.7,80,75,63,30.37,30.19,14,0,23,0.00
2013-12-6,8.1,-1.9,-10.0,-0.3,-8.3,-16.0,80,74,61,30.58,30.35,13,0,14,0.00
2013-12-7,14.8,7.4,0.1,5.8,0.8,-6.6,84,74,64,30.52,29.93,15,0,15,0.00
2013-12-8,11.5,7.7,0.7,4.2,-1.9,-9.9,77,64,51,30.18,29.83,23,1,26,0.00
2013-12-9,6.8,0.9,-5.8,-1.3,-7.4,-13.1,79,68,60,30.56,30.16,49,7,50,0.00
2013-12-10,22.7,17.2,6.9,9.4,5.4,-0.9,79,60,51,30.49,30.19,46,10,55,0.00
2013-12-11,30.4,21.4,8.6,7.1,2.5,-8.2,82,47,18,30.52,30.36,32,5,32,0.00
2013-12-12,42.1,33.7,27.9,7.1,1.0,-8.1,32,25,18,30.49,29.89,30,4,31,0.00
2013-12-13,33.7,27.8,19.6,11.0,7.5,2.6,57,42,28,30.15,29.77,26,3,27,0.00
2013-12-14,25.9,20.9,15.1,11.9,6.7,3.3,61,54,42,30.37,30.15,40,4,44,0.00
2013-12-15,34.2,28.4,22.3,15.2,12.8,9.9,66,52,40,30.37,30.13,59,9,59,0.00
2013-12-16,38.7,34.4,31.9,17.1,12.3,4.2,52,40,29,30.28,30.06,49,10,55,0.00
2013-12-17,40.4,35.3,30.8,13.2,11.1,8.1,44,36,31,30.33,30.09,33,5,37,0.00
2013-12-18,45.0,38.5,33.4,15.2,9.5,6.3,43,30,22,30.10,29.64,29,5,41,0.00
2013-12-19,41.7,30.3,12.8,19.3,15.6,8.2,87,57,32,29.65,29.45,15,1,18,0.00
2013-12-20,30.6,23.1,11.7,20.7,13.7,5.4,91,68,52,29.73,29.64,17,1,22,0.00
2013-12-21,24.6,18.9,13.6,14.2,8.1,3.6,83,63,50,29.98,29.56,17,1,17,0.00
2013-12-22,19.7,15.5,11.6,12.0,6.4,2.2,81,67,56,30.33,29.97,28,3,34,0.00
2013-12-23,27.0,21.2,8.9,17.1,12.6,4.8,86,69,59,30.40,30.23,39,5,43,0.00
2013-12-24,29.4,23.7,15.2,23.6,14.2,2.5,81,67,56,30.34,30.08,40,5,46,0.00
2013-12-25,27.9,21.2,14.6,7.0,2.9,0.5,59,45,36,30.55,30.32,20,3,29,0.00
2013-12-26,35.6,27.9,23.5,11.8,6.1,-1.9,50,39,31,30.44,30.35,32,4,36,0.00
2013-12-27,43.6,34.4,28.5,19.4,16.3,11.5,55,48,35,30.36,30.05,16,1,19,0.01
2013-12-28,37.6,27.2,13.8,18.9,15.3,9.1,85,63,42,30.08,29.81,24,2,28,0.00
2013-12-29,23.2,17.2,8.8,13.5,7.2,1.2,95,66,41,30.27,30.07,43,3,47,0.00
2013-12-30,26.4,22.5,17.9,12.0,9.4,4.5,69,57,48,30.36,30.14,29,5,37,0.00
2013-12-31,33.1,29.0,25.3,19.4,16.2,10.6,70,58,50,30.21,29.89,40,6,53,0.00
2014-1-1,27.4,22.3,17.3,20.7,11.4,2.5,82,63,42,30.30,29.88,28,2,34,0.00
2014-1-2,33.9,27.4,18.8,15.9,6.7,-1.1,64,42,27,30.39,30.02,33,5,36,0.00